Regional Weather Roundup
Issued by NWS Northern Indiana

Home | Current Version | Previous Version | Text Only | Print | Product List | Glossary Off
Versions: 1 2 3 4 5 6 7 8 9 10 11 12 13 14 15 16 17 18 19 20 21 22 23 24 25 26 27 28 29 30 31 32 33 34 35 36 37 38 39 40 41 42 43 44 45 46 47 48 49 50

000
ASUS43 KIWX 252210
RWRIWX

KIWX WEATHER ROUNDUP
NATIONAL WEATHER SERVICE NORTHERN INDIANA
600 PM EDT TUE APR 25 2017

NOTE: "FAIR" INDICATES FEW OR NO CLOUDS BELOW 12,000 FEET WITH NO
SIGNIFICANT WEATHER AND/OR OBSTRUCTIONS TO VISIBILITY.

* THESE STATIONS ARE NOT UNDER NWS QUALITY CONTROL. THEY ALSO MAY NOT
  REPORT WEATHER SUCH AS PRECIPITATION OR FOG.

INZ001>027-252300-
NORTHERN INDIANA

CITY           SKY/WX    TMP DP  RH WIND       PRES   REMARKS
GARY*          PTSUNNY   81  41  24 SE14G29   29.57F
VALPARAISO     CLOUDY    77  54  44 SE16G25   29.60F
MICHIGAN CITY* PTSUNNY   73  52  46 SE7       29.60F
LAPORTE*       MOSUNNY   74  53  47 SE14      29.62F
KNOX*          CLOUDY    77  25  14 SE13G21   29.61F
SOUTH BEND     MOSUNNY   73  55  53 S13G24    29.63F
ELKHART*       MOSUNNY   73  54  49 SE12      29.65F
GOSHEN         PTSUNNY   74  53  48 SE10      29.66F
MONTICELLO*    CLOUDY    76  51  41 S12       29.61F
LOGANSPORT*    SUNNY     73  52  46 SE16      29.62F
ROCHESTER*     SUNNY     75  52  43 SE15      29.62F
WARSAW*        MOSUNNY   73  54  49 SE10      29.66F
ANGOLA*        MOSUNNY   73  55  53 S10       29.68F
FORT WAYNE     CLOUDY    75  54  47 S12       29.67F
HUNTINGTON*    MOSUNNY   75  54  47 S7        29.67F
PERU/GRISSOM   PTSUNNY   76  56  51 SE13G18   29.61F

$$
INZ028>050-252300-
CENTRAL INDIANA

CITY           SKY/WX    TMP DP  RH WIND       PRES   REMARKS
LAFAYETTE      CLOUDY    75  54  47 SE12      29.60F
KOKOMO*        SUNNY     76  55  48 SE10G17   29.65F
MUNCIE*        MOSUNNY   77  54  44 SE5       29.68F
INDIANAPOLIS   PTSUNNY   75  56  51 SE10      29.64F

$$
MIZ043>046-050>051-056>058-064>065-071>073-077>080-252300-
SOUTHWEST LOWER MICHIGAN

CITY           SKY/WX    TMP DP  RH WIND       PRES   REMARKS
BATTLE CREEK   PTSUNNY   72  55  55 S13       29.69S
BENTON HARBOR  PTSUNNY   74  53  48 SE14      29.62F
COLDWATER*     MOSUNNY   71  54  55 SE10G17   29.69F
HILLSDALE*     MOSUNNY   72  52  49 S10       29.71S
HOLLAND        MOSUNNY   73  55  53 VRB6      29.65F
GRAND RAPIDS   CLOUDY    72  55  55 SE12      29.67F
KALAMAZOO      PTSUNNY   74  52  46 SE9       29.67F
STURGIS*       PTSUNNY   74  56  52 SE13      29.67F
THREE RIVERS*  FAIR      72  55  55 S7        29.67F

$$
OHZ001>008-015>018-024>025-252300-
NORTHWEST OHIO

CITY           SKY/WX    TMP DP  RH WIND       PRES   REMARKS
WAUSEON*       FAIR      73  55  53 E16       29.70F
DEFIANCE       MOSUNNY   73  53  49 SE7       29.69F
FINDLAY        CLOUDY    76  52  43 SE8       29.70R
TOLEDO EXPRESS CLOUDY    67  54  63 NE14      29.72S
TOLEDO METCALF PTSUNNY   67  56  67 NE10      29.73F
LIMA           CLOUDY    76  53  44 S9        29.70S

$$
AND FOR LAKE MICHIGAN COASTAL AND OPEN LAKE BUOY OBSERVATIONS

STATION/POSITION TEMP    WIND        PRES    VSBY  WAVE
                 AIR SEA DIR/SP/G                  HT/PER
                 (F)     (DEG/KT/KT) (MB)    (MI)  (FT/S)
CALUMET HARBOR    78     160/ 14/ 19 1000.9F
MICHIGAN CITY     74     130/ 15/ 20   N/A
BURNS HARBOR      77     140/ 15/ 22 1002.0F
SOUTH LAKE BUOY   48 42   90/  6/  8 1004.5          1
4 MI NW BRIDGMAN  65 50  150/ 10/ 16 1002.3          1

$$
&&



USA.gov is the U.S. government's official web portal to all federal, state and local government web resources and services.